Location: York
(31.8935°S, 116.7682°E)
Time: 15:27:11
(UTC+08:00)

Explorer 11/Cluster Stage 4 - All Passes

Search period start: 25 September 2022 00:00
Search period end: 05 October 2022 00:00
Orbit: 466 x 1249 km, 28.8° (Epoch: 24 September)

Date Brightness Start Highest point End Pass type
(mag) Time Alt. Az. Time Alt. Az. Time Alt. Az.
25 Sep - 02:21:04 10° NNW 02:25:59 30° NNE 02:31:54 10° E visible
25 Sep - 04:08:01 10° WNW 04:14:20 61° NNE 04:21:58 10° E visible
25 Sep - 05:56:10 10° W 06:03:22 70° N 06:11:31 10° ENE daylight
25 Sep - 07:44:56 10° W 07:52:29 50° NNW 08:00:21 10° NE daylight
25 Sep - 09:34:58 10° WNW 09:41:12 24° NNW 09:47:17 10° NNE daylight
26 Sep - 02:08:40 10° NW 02:13:30 32° NNE 02:19:21 10° E visible
26 Sep - 03:55:43 10° WNW 04:01:49 63° N 04:09:18 10° E visible
26 Sep - 05:43:49 10° W 05:50:48 68° N 05:58:51 10° ENE daylight
26 Sep - 07:32:33 10° W 07:39:51 47° NNW 07:47:38 10° NE daylight
26 Sep - 09:22:43 10° WNW 09:28:32 22° NNW 09:34:18 10° NNE daylight
27 Sep - 01:56:19 10° NW 02:01:00 34° NNE 02:06:47 10° E visible
27 Sep - 03:43:26 10° WNW 03:49:20 65° N 03:56:38 10° E visible
27 Sep - 05:31:30 10° W 05:38:15 66° N 05:46:10 10° ENE visible
27 Sep - 07:20:11 10° W 07:27:14 43° NNW 07:34:51 10° NE daylight
27 Sep - 09:10:36 10° WNW 09:15:52 19° NNW 09:21:11 10° N daylight
28 Sep - 00:00:29 10° NNE 00:01:04 10° NE 00:01:39 10° NE night (unlit)
28 Sep - 01:43:59 10° NW 01:48:33 37° NNE 01:54:11 10° E visible
28 Sep - 03:31:11 10° WNW 03:36:52 66° N 03:43:57 10° E visible
28 Sep - 05:19:12 10° W 05:25:42 63° N 05:33:27 10° ENE visible
28 Sep - 07:07:52 10° W 07:14:36 39° NNW 07:22:01 10° NE daylight
28 Sep - 08:58:37 10° WNW 09:03:13 16° NNW 09:07:54 10° N daylight
28 Sep - 23:47:09 10° NNE 23:48:37 11° NNE 23:50:10 10° NE night (unlit)
29 Sep - 01:31:41 10° NW 01:36:07 39° NNE 01:41:37 10° E visible
29 Sep - 03:18:58 10° WNW 03:24:24 66° N 03:31:17 10° E visible
29 Sep - 05:06:56 10° W 05:13:10 60° N 05:20:43 10° ENE visible
29 Sep - 06:55:35 10° W 07:01:59 35° NNW 07:09:07 10° NE daylight
29 Sep - 08:46:52 10° WNW 08:50:35 14° NNW 08:54:22 10° N daylight
29 Sep - 23:34:17 10° N 23:36:10 13° NNE 23:38:12 10° ENE night (unlit)
30 Sep - 01:19:24 10° NW 01:23:43 41° NNE 01:29:02 10° E visible
30 Sep - 03:06:45 10° WNW 03:11:59 66° N 03:18:36 10° E visible
30 Sep - 04:54:41 10° W 05:00:40 56° N 05:07:57 10° ENE visible
30 Sep - 06:43:23 10° W 06:49:24 31° NNW 06:56:09 10° NE daylight
30 Sep - 08:35:37 10° NW 08:37:57 11° NNW 08:40:20 10° NNW daylight
30 Sep - 23:21:34 10° N 23:23:46 14° NNE 23:26:07 10° ENE night (unlit)
01 Oct - 01:07:10 10° NW 01:11:20 43° NNE 01:16:28 10° E night (unlit)
01 Oct - 02:54:33 10° W 02:59:35 65° N 03:05:56 10° E visible
01 Oct - 04:42:27 10° W 04:48:10 51° NNW 04:55:10 10° ENE visible
01 Oct - 06:31:14 10° WNW 06:36:49 27° NNW 06:43:07 10° NNE daylight
01 Oct - 23:08:57 10° NNW 23:11:22 16° NNE 23:13:59 10° ENE night (unlit)
02 Oct - 00:54:56 10° WNW 00:58:59 46° NNE 01:03:56 10° E night (unlit)
02 Oct - 02:42:22 10° W 02:47:11 64° N 02:53:16 10° E visible
02 Oct - 04:30:15 10° W 04:35:41 46° NNW 04:42:21 10° ENE visible
02 Oct - 06:19:11 10° WNW 06:24:15 23° NNW 06:29:59 10° NNE daylight
02 Oct - 22:56:24 10° NNW 22:58:59 18° NNE 23:01:47 10° ENE night (unlit)
03 Oct - 00:42:42 10° WNW 00:46:38 48° NNE 00:51:24 10° E night (unlit)
03 Oct - 02:30:11 10° W 02:34:47 61° N 02:40:36 10° ENE visible
03 Oct - 04:18:05 10° W 04:23:13 41° NNW 04:29:31 10° NE visible
03 Oct - 06:07:14 10° WNW 06:11:43 20° NNW 06:16:45 10° NNE daylight
03 Oct - 22:43:53 10° NNW 22:46:37 20° NNE 22:49:34 10° ENE night (unlit)
04 Oct - 00:30:29 10° WNW 00:34:19 50° N 00:38:53 10° E night (unlit)
04 Oct - 02:18:01 10° W 02:22:26 58° N 02:27:57 10° ENE visible
04 Oct - 04:05:57 10° W 04:10:46 37° NNW 04:16:39 10° NE visible
04 Oct - 05:55:27 10° WNW 05:59:12 16° NNW 06:03:21 10° NNE daylight
04 Oct - 22:31:24 10° NNW 22:34:17 22° NNE 22:37:20 10° ENE night (unlit)
